Danvers, MA

5:54 PM EST on January 19, 2017 (GMT -0500)
Beverly Municipal

Weather History for KBVY - April, 2013

Change the Weather History Date:

Thursday, April 11, 2013

  Actual Average Record
Temperature  
Mean Temperature 47 °F -  
Max Temperature 51 °F 53 °F 73 °F (2011)
Min Temperature 42 °F 33 °F 27 °F (1999)
Degree Days  
Heating Degree Days 18    
Moisture  
Dew Point 38 °F    
Average Humidity 76    
Maximum Humidity 93    
Minimum Humidity 49    
Precipitation  
Precipitation 0.10 in - - ()
Sea Level Pressure  
Sea Level Pressure 29.97 in    
Wind  
Wind Speed 4 mph (NE)    
Max Wind Speed 9 mph    
Max Gust Speed -    
Visibility 8 miles    
Events Rain    
Averages and records for this station are not official NWS values.
T = Trace of Precipitation, MM = Missing Value Source: NWS Daily Summary

Daily Weather History Graph

Daily Weather History Graph

Search for Another Location

Airport or City:

Trip Planner

Search our weather history database for the weather conditions in past years. The results will help you decide how hot, cold, wet, or windy it might be!

Date:

Astronomy

Apr. 11, 2013 Rise Set
Actual Time 6:08 AM EDT 7:21 PM EDT
Civil Twilight 5:39 AM EDT 7:50 PM EDT
Nautical Twilight 5:04 AM EDT 8:25 PM EDT
Astronomical Twilight 4:28 AM EDT 9:02 PM EDT
Moon 6:36 AM EDT (4/11) 8:55 PM EDT (4/11)
Length of Visible Light 14h 10m
Length of Day
13h 12m
New Moon, 2% of the Moon is Illuminated
Apr 11
New Moon
Apr 18
First Quarter
Apr 25
Full
May 2
Last Quarter
May 9
New

Hourly Weather History & Observations

Time (EDT) Temp. Windchill Dew Point Humidity Pressure Visibility Wind Dir Wind Speed Gust Speed Precip Events Conditions
12:43 AM 46.4 °F - 44.6 °F 93% 29.89 in 5.0 mi Calm Calm - 0.04 in Rain Light Rain
12:53 AM 46.0 °F 44.8 °F 44.1 °F 93% 29.88 in 7.0 mi ENE 3.5 mph - 0.04 in Rain Light Rain
1:15 AM 46.4 °F - 44.6 °F 93% 29.89 in 10.0 mi Calm Calm - 0.00 in   Overcast
1:40 AM 46.4 °F 44.3 °F 42.8 °F 87% 29.87 in 2.5 mi ENE 4.6 mph - 0.02 in Rain Light Rain
1:53 AM 46.0 °F 43.9 °F 43.0 °F 89% 29.85 in 3.0 mi ENE 4.6 mph - 0.02 in Rain Light Rain
2:04 AM 46.4 °F 44.3 °F 42.8 °F 87% 29.86 in 2.5 mi ENE 4.6 mph - 0.01 in Rain Light Rain
2:12 AM 46.4 °F 44.3 °F 42.8 °F 87% 29.85 in 3.0 mi ENE 4.6 mph - 0.02 in Rain Light Rain
2:53 AM 45.0 °F 43.5 °F 43.0 °F 93% 29.82 in 5.0 mi NE 3.5 mph - 0.03 in   Overcast
3:53 AM 46.0 °F 44.8 °F 44.1 °F 93% 29.83 in 10.0 mi North 3.5 mph - N/A   Overcast
4:53 AM 45.0 °F 41.8 °F 43.0 °F 93% 29.84 in 5.0 mi North 5.8 mph - N/A   Overcast
5:53 AM 44.1 °F 40.1 °F 42.1 °F 93% 29.88 in 3.0 mi North 6.9 mph - 0.01 in   Overcast
6:53 AM 45.0 °F 41.8 °F 42.1 °F 90% 29.91 in 4.0 mi North 5.8 mph - N/A   Overcast
7:53 AM 45.0 °F 41.2 °F 42.1 °F 90% 29.94 in 6.0 mi NNE 6.9 mph - N/A   Overcast
8:19 AM 44.6 °F 40.7 °F 42.8 °F 93% 29.95 in 10.0 mi North 6.9 mph - N/A   Overcast
8:53 AM 46.0 °F 43.1 °F 42.1 °F 86% 29.94 in 5.0 mi NE 5.8 mph - N/A   Overcast
9:53 AM 45.0 °F 43.5 °F 39.9 °F 82% 29.98 in 10.0 mi North 3.5 mph - N/A   Overcast
10:04 AM 44.6 °F - 39.2 °F 81% 29.99 in 10.0 mi Calm Calm - N/A   Overcast
10:53 AM 48.2 °F - 39.2 °F 71% 30.00 in 10.0 mi NNE 4.6 mph - N/A   Overcast
11:53 AM 48.9 °F - 34.0 °F 56% 30.02 in 10.0 mi ENE 6.9 mph - N/A   Overcast
12:53 PM 48.2 °F - 32.0 °F 54% 30.02 in 10.0 mi ENE 9.2 mph - N/A   Overcast
1:53 PM 51.1 °F - 33.1 °F 50% 30.02 in 10.0 mi North 4.6 mph - N/A   Overcast
2:53 PM 48.9 °F - 35.1 °F 59% 30.02 in 10.0 mi SE 9.2 mph - N/A   Overcast
3:53 PM 50.0 °F - 35.1 °F 57% 30.02 in 10.0 mi SE 8.1 mph - N/A   Mostly Cloudy
4:53 PM 45.0 °F 41.2 °F 35.1 °F 68% 30.03 in 10.0 mi SE 6.9 mph - N/A   Overcast
5:53 PM 44.1 °F 40.8 °F 35.1 °F 71% 30.05 in 10.0 mi SE 5.8 mph - N/A   Overcast
6:53 PM 44.1 °F - 35.1 °F 71% 30.07 in 10.0 mi Calm Calm - N/A   Overcast
7:53 PM 44.1 °F - 32.0 °F 63% 30.08 in 10.0 mi Calm Calm - N/A   Overcast
8:53 PM 44.1 °F 41.5 °F 26.1 °F 49% 30.09 in 10.0 mi North 4.6 mph - N/A   Overcast
9:53 PM 44.1 °F - 27.0 °F 51% 30.11 in 10.0 mi Calm Calm - N/A   Overcast
10:53 PM 43.0 °F 41.3 °F 30.0 °F 60% 30.13 in 10.0 mi NNW 3.5 mph - 0.00 in Rain Light Rain
11:53 PM 42.1 °F - 30.9 °F 65% 30.13 in 10.0 mi Calm Calm - 0.00 in   Overcast